• Em Portugal
  • Lista de países
  • Para 7 dias
  • Temperatura da água
  • Mapas de satélite
  • Mapa do tempo
  • Widgets de tempo
  • user-avatar
    Iniciar Sessão

    Previsão horária em Newcastle

    Hoje, 24 Setembro, Segunda-feira

    Tempo Temperatura Precipitação Vento Pressão Humidade
    00:00 +14°C° 0.4 mm 6 m/s 769 mmHg 94%
    01:00 +13°C° 0.4 mm 6 m/s 769 mmHg 94%
    02:00 +13°C° 0.2 mm 6 m/s 769 mmHg 93%
    03:00 +13°C° 0.2 mm 6 m/s 769 mmHg 92%
    04:00 +11°C° 0 mm 6 m/s 769 mmHg 92%
    05:00 +13°C° 0.1 mm 6 m/s 769 mmHg 90%
    06:00 +13°C° 0.1 mm 6 m/s 769 mmHg 88%
    07:00 +13°C° 0.1 mm 6 m/s 770 mmHg 87%
    08:00 +13°C° 0.1 mm 5 m/s 770 mmHg 83%
    09:00 +14°C° 0.1 mm 5 m/s 770 mmHg 79%
    10:00 +15°C° 0.1 mm 5 m/s 771 mmHg 75%
    11:00 +14°C° 0.1 mm 5 m/s 770 mmHg 75%
    12:00 +14°C° 0.1 mm 5 m/s 770 mmHg 76%
    13:00 +14°C° 0.1 mm 5 m/s 770 mmHg 76%
    14:00 +14°C° 0 mm 5 m/s 770 mmHg 72%
    15:00 +15°C° 0 mm 5 m/s 770 mmHg 67%
    16:00 +15°C° 0 mm 5 m/s 770 mmHg 63%
    17:00 +14°C° 0 mm 5 m/s 770 mmHg 67%
    18:00 +13°C° 0 mm 4 m/s 770 mmHg 71%
    19:00 +12°C° 0 mm 4 m/s 770 mmHg 76%
    20:00 +11°C° 0 mm 4 m/s 771 mmHg 78%
    21:00 +11°C° 0 mm 3 m/s 771 mmHg 81%
    22:00 +10°C° 0 mm 3 m/s 771 mmHg 84%
    23:00 +10°C° 0 mm 3 m/s 771 mmHg 84%

    Amanhã, 25 Setembro, Terça-feira

    Tempo Temperatura Precipitação Vento Pressão Humidade
    00:00 +9°C° 0 mm 2 m/s 770 mmHg 83%
    01:00 +9°C° 0 mm 2 m/s 770 mmHg 83%
    02:00 +9°C° 0 mm 2 m/s 770 mmHg 82%
    03:00 +9°C° 0 mm 2 m/s 770 mmHg 81%
    04:00 +9°C° 0 mm 2 m/s 770 mmHg 79%
    05:00 +10°C° 0 mm 2 m/s 770 mmHg 78%
    06:00 +12°C° 0 mm 1 m/s 770 mmHg 76%
    07:00 +12°C° 0 mm 1 m/s 771 mmHg 74%
    08:00 +14°C° 0 mm 2 m/s 770 mmHg 65%
    09:00 +16°C° 0 mm 2 m/s 770 mmHg 56%
    10:00 +18°C° 0 mm 2 m/s 770 mmHg 48%
    11:00 +18°C° 0 mm 2 m/s 769 mmHg 48%
    12:00 +18°C° 0 mm 2 m/s 769 mmHg 49%
    13:00 +18°C° 0 mm 3 m/s 768 mmHg 49%
    14:00 +17°C° 0 mm 3 m/s 768 mmHg 51%
    15:00 +17°C° 0 mm 3 m/s 767 mmHg 53%
    16:00 +17°C° 0 mm 3 m/s 767 mmHg 55%
    17:00 +14°C° 0 mm 3 m/s 767 mmHg 65%
    18:00 +12°C° 0 mm 3 m/s 768 mmHg 74%
    19:00 +12°C° 0 mm 2 m/s 768 mmHg 83%
    20:00 +10°C° 0 mm 2 m/s 768 mmHg 86%
    21:00 +10°C° 0 mm 2 m/s 769 mmHg 89%
    22:00 +9°C° 0 mm 2 m/s 769 mmHg 91%
    23:00 +9°C° 0 mm 2 m/s 769 mmHg 93%

    Depois de amanhã, 26 Setembro, Quarta-feira

    Tempo Temperatura Precipitação Vento Pressão Humidade
    00:00 +9°C° 0 mm 1 m/s 768 mmHg 94%
    01:00 +9°C° 0 mm 1 m/s 768 mmHg 95%
    02:00 +9°C° 0 mm 1 m/s 768 mmHg 96%
    03:00 +9°C° 0 mm 1 m/s 767 mmHg 96%
    04:00 +8°C° 0 mm 1 m/s 767 mmHg 96%
    05:00 +9°C° 0 mm 1 m/s 767 mmHg 93%
    06:00 +10°C° 0 mm 1 m/s 768 mmHg 89%
    07:00 +11°C° 0 mm 1 m/s 768 mmHg 85%
    08:00 +14°C° 0.1 mm 1 m/s 768 mmHg 73%
    09:00 +18°C° 0.1 mm 1 m/s 767 mmHg 61%
    10:00 +21°C° 0.1 mm 1 m/s 767 mmHg 49%
    11:00 +20°C° 0.2 mm 2 m/s 767 mmHg 50%
    12:00 +20°C° 0.2 mm 2 m/s 766 mmHg 52%
    13:00 +20°C° 0.2 mm 3 m/s 766 mmHg 53%
    14:00 +19°C° 0 mm 3 m/s 766 mmHg 56%
    15:00 +19°C° 0 mm 3 m/s 765 mmHg 58%
    16:00 +18°C° 0 mm 3 m/s 765 mmHg 60%
    17:00 +16°C° 0 mm 3 m/s 766 mmHg 69%
    18:00 +13°C° 0 mm 3 m/s 766 mmHg 79%
    19:00 +12°C° 0 mm 2 m/s 767 mmHg 88%
    20:00 +12°C° 0 mm 2 m/s 767 mmHg 90%
    21:00 +10°C° 0 mm 2 m/s 767 mmHg 93%
    22:00 +10°C° 0 mm 2 m/s 767 mmHg 95%
    23:00 +10°C° 0 mm 2 m/s 767 mmHg 95%

    27 Setembro, Quinta-feira

    Tempo Temperatura Precipitação Vento Pressão Humidade
    00:00 +9°C° 0 mm 2 m/s 767 mmHg 96%
    01:00 +9°C° 0 mm 2 m/s 766 mmHg 96%
    02:00 +9°C° 0 mm 2 m/s 766 mmHg 97%
    03:00 +9°C° 0 mm 2 m/s 766 mmHg 97%
    04:00 +9°C° 0 mm 1 m/s 765 mmHg 97%
    05:00 +9°C° 0 mm 2 m/s 766 mmHg 93%
    06:00 +10°C° 0 mm 2 m/s 766 mmHg 89%
    07:00 +12°C° 0 mm 2 m/s 766 mmHg 86%
    08:00 +14°C° 0 mm 3 m/s 766 mmHg 72%
    09:00 +19°C° 0 mm 3 m/s 765 mmHg 58%
    10:00 +22°C° 0 mm 3 m/s 765 mmHg 44%
    11:00 +24°C° 0 mm 3 m/s 764 mmHg 40%
    12:00 +26°C° 0 mm 3 m/s 763 mmHg 36%
    13:00 +27°C° 0 mm 3 m/s 763 mmHg 32%
    14:00 +27°C° 0 mm 4 m/s 762 mmHg 35%
    15:00 +26°C° 0 mm 4 m/s 762 mmHg 37%
    16:00 +26°C° 0 mm 4 m/s 761 mmHg 40%
    17:00 +22°C° 0 mm 5 m/s 762 mmHg 48%
    18:00 +20°C° 0 mm 5 m/s 762 mmHg 56%
    19:00 +17°C° 0 mm 5 m/s 763 mmHg 64%
    20:00 +16°C° 0 mm 5 m/s 763 mmHg 68%
    21:00 +16°C° 0 mm 5 m/s 763 mmHg 71%
    22:00 +15°C° 0 mm 4 m/s 763 mmHg 75%
    23:00 +14°C° 0 mm 4 m/s 763 mmHg 75%

    28 Setembro, Sexta-feira

    Tempo Temperatura Precipitação Vento Pressão Humidade
    00:00 +14°C° 0 mm 4 m/s 762 mmHg 75%
    01:00 +14°C° 0 mm 4 m/s 762 mmHg 74%
    02:00 +14°C° 0 mm 4 m/s 762 mmHg 74%
    03:00 +13°C° 0 mm 3 m/s 762 mmHg 74%
    04:00 +13°C° 0 mm 3 m/s 762 mmHg 73%
    05:00 +14°C° 0 mm 3 m/s 762 mmHg 71%
    06:00 +17°C° 0 mm 4 m/s 762 mmHg 69%
    07:00 +18°C° 0 mm 4 m/s 763 mmHg 67%
    08:00 +20°C° 0 mm 4 m/s 762 mmHg 60%
    09:00 +24°C° 0 mm 3 m/s 762 mmHg 53%
    10:00 +27°C° 0 mm 3 m/s 762 mmHg 46%
    11:00 +28°C° 0 mm 4 m/s 761 mmHg 43%
    12:00 +29°C° 0 mm 4 m/s 760 mmHg 39%
    13:00 +30°C° 0 mm 4 m/s 760 mmHg 36%
    14:00 +29°C° 0 mm 5 m/s 759 mmHg 39%
    15:00 +29°C° 0 mm 5 m/s 759 mmHg 41%
    16:00 +28°C° 0 mm 5 m/s 758 mmHg 44%
    17:00 +26°C° 0 mm 5 m/s 758 mmHg 53%
    18:00 +23°C° 0 mm 5 m/s 758 mmHg 61%
    19:00 +20°C° 0 mm 4 m/s 759 mmHg 70%
    20:00 +19°C° 2 mm 3 m/s 759 mmHg 79%
    21:00 +18°C° 2 mm 3 m/s 759 mmHg 88%
    22:00 +17°C° 2 mm 2 m/s 759 mmHg 96%
    23:00 +17°C° 0.4 mm 2 m/s 758 mmHg 97%

    29 Setembro, Sábado

    Tempo Temperatura Precipitação Vento Pressão Humidade
    00:00 +16°C° 0.4 mm 2 m/s 758 mmHg 97%
    01:00 +16°C° 0.4 mm 3 m/s 758 mmHg 97%
    02:00 +16°C° 0 mm 3 m/s 758 mmHg 97%
    03:00 +16°C° 0 mm 3 m/s 758 mmHg 96%
    04:00 +14°C° 0 mm 4 m/s 758 mmHg 95%
    05:00 +14°C° 0 mm 4 m/s 759 mmHg 93%
    06:00 +15°C° 0 mm 4 m/s 759 mmHg 91%
    07:00 +15°C° 0 mm 4 m/s 760 mmHg 88%
    08:00 +15°C° 0.2 mm 4 m/s 761 mmHg 84%
    09:00 +17°C° 0.2 mm 4 m/s 761 mmHg 80%
    10:00 +17°C° 0.2 mm 4 m/s 761 mmHg 76%
    11:00 +18°C° 0.3 mm 4 m/s 761 mmHg 70%
    12:00 +17°C° 0.3 mm 5 m/s 762 mmHg 64%
    13:00 +19°C° 0.3 mm 5 m/s 762 mmHg 59%
    14:00 +19°C° 0.1 mm 5 m/s 762 mmHg 51%
    15:00 +19°C° 0.1 mm 5 m/s 762 mmHg 42%
    16:00 +20°C° 0.1 mm 5 m/s 762 mmHg 34%
    17:00 +17°C° 0 mm 5 m/s 763 mmHg 41%
    18:00 +14°C° 0 mm 5 m/s 764 mmHg 47%
    19:00 +12°C° 0 mm 5 m/s 766 mmHg 54%
    20:00 +11°C° 0 mm 4 m/s 766 mmHg 61%
    21:00 +11°C° 0 mm 4 m/s 767 mmHg 68%
    22:00 +10°C° 0 mm 3 m/s 767 mmHg 76%
    23:00 +9°C° 0 mm 3 m/s 767 mmHg 78%
    Mostrar mais